Regional Weather Roundup
Issued by NWS

Home | Current Version | Previous Version | Text Only | Print | Product List | Glossary On
Versions: 1 2 3 4 5 6 7 8 9 10 11 12 13 14 15 16 17 18 19 20 21 22 23 24 25 26 27 28 29 30 31 32 33 34 35 36 37 38 39 40 41 42 43 44 45 46 47 48 49 50
000
ASUS44 KMEG 312000
RWRTN
TENNESSEE HOURLY STATE WEATHER ROUNDUP
NATIONAL WEATHER SERVICE MEMPHIS TN
300 PM CDT TUE MAY 31 2016

TNZ002-004-019-021-049-052-054-088>092-312100-
WEST TENNESSEE

CITY           SKY/WX    TMP DP  RH WIND       PRES   REMARKS
MEMPHIS INTL   MOSUNNY   83  65  54 CALM      29.92F
NWS MEMPHIS      N/A     83 N/A N/A MISG        N/A
JACKSON        PTSUNNY   81  67  62 S3        29.93F
DYERSBURG      SUNNY     82  66  57 SW7       29.92F
UNION CITY     SUNNY     86  66  51 S3        29.92F
PARIS          SUNNY     82  66  57 CALM      29.94F
LEXINGTON      SUNNY     84  63  48 CALM      29.93F
$$

TNZ008-025-027-028-033-062-065-066-312100-
NORTH MIDDLE TENNESSEE

CITY           SKY/WX    TMP DP  RH WIND       PRES   REMARKS
NASHVILLE      PTSUNNY   88  57  34 CALM      29.94F
CLARKSVILLE    SUNNY     86  60  41 CALM      29.93F
COOKEVILLE     MOSUNNY   88  64  45 SW3       29.95F
CROSSVILLE     CLOUDY    80  62  54 NW6       30.01F
$$

TNZ061-075-076-078-094-096-097-312100-
SOUTH MIDDLE TENNESSEE

CITY           SKY/WX    TMP DP  RH WIND       PRES   REMARKS
TULLAHOMA      SUNNY     88  55  33 VRB6      29.96F
WINCHESTER     SUNNY     88  59  37 VRB6      29.95F
MCMINNVILLE    SUNNY     90  57  33 S3        29.95F
COLUMBIA       SUNNY     88  64  45 W7        29.93F
SHELBYVILLE    SUNNY     91  57  31 NW5       29.95F HX  90
$$

TNZ017-018-042-046-047-312100-
NORTHEAST TENNESSEE

CITY           SKY/WX    TMP DP  RH WIND       PRES   REMARKS
TRI CITIES     PTSUNNY   88  58  36 VRB3      29.96F
$$

TNZ012-013-036-069-073-074-312100-
CENTRAL EAST TENNESSEE

CITY           SKY/WX    TMP DP  RH WIND       PRES   REMARKS
KNOXVILLE      PTSUNNY   87  58  37 NW8       29.94F
OAK RIDGE      PTSUNNY   86  59  39 CALM      29.96F
GATLINBURG       N/A     88  57  35 VRB6      29.93F
$$

TNZ083-085-099-312100-
SOUTHEAST TENNESSEE

CITY           SKY/WX    TMP DP  RH WIND       PRES   REMARKS
CHATTANOOGA    PTSUNNY   90  55  30 CALM      29.93F
$$

SKY/WX REPORTED AS FAIR MEANS FEW OR NO CLOUDS BELOW
12 THOUSAND FEET.





USA.gov is the U.S. government's official web portal to all federal, state and local government web resources and services.